パンスターズ彗星

C/2014 R3 ( PanSTARRS )

English version
Home page
Updated on August 6, 2019

---------------------------------------------------------------------

・ プロフィール

発見日 2014年9月6日
発見光度 20.1等
発見者 Pan-STARRS 1 telescope (Haleakala)

・ 写真集

・ 軌道要素

Epoch 2016 July 31.0 TT = JDT 2457600.5
T 2016 Aug. 7.89526 TT                                  MPCW
q   7.2753990            (2000.0)            P               Q
z  +0.0000138      Peri.  113.40104     -0.36316592     -0.82311724
 +/-0.0000005      Node   334.11215     -0.21699479     +0.53039155
e   0.9998997      Incl.   90.83748     +0.90610363     -0.20288621
From 790 observations 2014 Sept. 6-2019 May 1, mean residual 0".5.

・ 光度変化

        m1 = -16   + 5 logΔ + 33   log r(t - 100)  [   ,100]  (              〜2016年11月15日)
        m1 =   3.8 + 5 logΔ + 10.0 log r           [100,   ]  (2016年11月15日〜              )

---------------------------------------------------------------------

軌道要素はM.P.E.C. 2019-J142に掲載されたものです。
光度グラフはComet for Windowsで作成したものです。

---------------------------------------------------------------------

Copyright(C) Seiichi Yoshida (comet@aerith.net). All rights reserved.